Change the Weather History Date:

Sunday, December 14, 2014

  Actual Average Record
Temperature  
Mean Temperature 26 °F -  
Max Temperature 32 °F 24 °F 46 °F (2006)
Min Temperature 19 °F 0 °F -14 °F (1997)
Degree Days  
Heating Degree Days 40    
Moisture  
Dew Point 20 °F    
Average Humidity 72    
Maximum Humidity 86    
Minimum Humidity 60    
Precipitation  
Precipitation 0.00 in - - ()
Sea Level Pressure  
Sea Level Pressure 29.88 in    
Wind  
Wind Speed 9 mph (WSW)    
Max Wind Speed 21 mph    
Max Gust Speed 26 mph    
Visibility 9 miles    
Events      
Averages and records for this station are not official NWS values.
T = Trace of Precipitation, MM = Missing Value Source: NWS Daily Summary

Daily Weather History Graph

Daily Weather History Graph

Search for Another Location

Airport or City:

Trip Planner

Search our weather history database for the weather conditions in past years. The results will help you decide how hot, cold, wet, or windy it might be!

Date:

Astronomy

Dec. 14, 2014 Rise Set
Actual Time 7:17 AM MST 4:47 PM MST
Civil Twilight 6:47 AM MST 5:17 PM MST
Nautical Twilight 6:14 AM MST 5:50 PM MST
Astronomical Twilight 5:42 AM MST 6:22 PM MST
Moon No Moon Rise 12:15 PM MST (12/14)
Length of Visible Light 10h 29m
Length of Day
9h 30m
Waning Gibbous, 48% of the Moon is Illuminated
Dec 14
Waning Gibbous
Dec 21
New
Dec 28
First Quarter
Jan 4
Full
Jan 13
Last Quarter

Hourly Weather History & Observations

Time (MST) Temp. Windchill Dew Point Humidity Pressure Visibility Wind Dir Wind Speed Gust Speed Precip Events Conditions
12:15 AM 30.2 °F 23.4 °F 26.6 °F 86% 29.84 in 5.0 mi WSW 6.9 mph - N/A   Mostly Cloudy
12:35 AM 30.2 °F 25.4 °F 26.6 °F 86% 29.83 in 3.0 mi SW 4.6 mph - N/A   Overcast
12:55 AM 30.2 °F - 26.6 °F 86% 29.82 in 10.0 mi Calm Calm - N/A   Mostly Cloudy
1:15 AM 30.2 °F 25.4 °F 24.8 °F 80% 29.81 in 10.0 mi SSW 4.6 mph - N/A   Mostly Cloudy
1:35 AM 30.2 °F - 24.8 °F 80% 29.80 in 10.0 mi Calm Calm - N/A   Overcast
1:55 AM 30.2 °F 26.7 °F 24.8 °F 80% 29.80 in 7.0 mi SW 3.5 mph - N/A   Overcast
2:15 AM 30.2 °F 23.4 °F 24.8 °F 80% 29.81 in 3.0 mi SSW 6.9 mph - N/A   Overcast
2:35 AM 30.2 °F 26.7 °F 24.8 °F 80% 29.80 in 10.0 mi WSW 3.5 mph - N/A   Overcast
2:55 AM 30.2 °F 21.3 °F 23.0 °F 75% 29.81 in 9.0 mi SW 10.4 mph 16.1 mph N/A   Overcast
3:15 AM 28.4 °F 19.1 °F 23.0 °F 80% 29.81 in 3.0 mi SW 10.4 mph - N/A   Overcast
3:35 AM 28.4 °F 18.0 °F 23.0 °F 80% 29.80 in 2.5 mi SW 12.7 mph 16.1 mph N/A   Overcast
3:55 AM 28.4 °F 18.0 °F 23.0 °F 80% 29.80 in 3.0 mi SW 12.7 mph 17.3 mph N/A   Overcast
4:15 AM 28.4 °F 18.5 °F 21.2 °F 74% 29.80 in 3.0 mi SW 11.5 mph 17.3 mph N/A   Overcast
4:35 AM 28.4 °F 18.0 °F 21.2 °F 74% 29.80 in 1.5 mi WSW 12.7 mph - N/A   Overcast
4:55 AM 28.4 °F 17.5 °F 21.2 °F 74% 29.80 in 3.0 mi SW 13.8 mph - N/A   Overcast
5:15 AM 28.4 °F 19.1 °F 23.0 °F 80% 29.80 in 10.0 mi SW 10.4 mph 18.4 mph N/A   Overcast
5:35 AM 28.4 °F 21.2 °F 21.2 °F 74% 29.80 in 10.0 mi SW 6.9 mph - N/A   Overcast
5:55 AM 28.4 °F 18.0 °F 21.2 °F 74% 29.80 in 10.0 mi WSW 12.7 mph 16.1 mph N/A   Mostly Cloudy
6:15 AM 28.4 °F 19.1 °F 21.2 °F 74% 29.80 in 10.0 mi WSW 10.4 mph - N/A   Mostly Cloudy
6:35 AM 28.4 °F 22.2 °F 21.2 °F 74% 29.80 in 10.0 mi WSW 5.8 mph - N/A   Overcast
6:55 AM 28.4 °F 22.2 °F 21.2 °F 74% 29.81 in 10.0 mi West 5.8 mph - N/A   Mostly Cloudy
7:15 AM 28.4 °F 24.6 °F 21.2 °F 74% 29.81 in 10.0 mi WSW 3.5 mph - N/A   Mostly Cloudy
7:35 AM 28.4 °F 19.7 °F 21.2 °F 74% 29.81 in 10.0 mi West 9.2 mph - N/A   Overcast
7:55 AM 28.4 °F 19.1 °F 21.2 °F 74% 29.81 in 10.0 mi WSW 10.4 mph - N/A   Overcast
8:15 AM 28.4 °F 19.7 °F 21.2 °F 74% 29.82 in 10.0 mi SW 9.2 mph - N/A   Overcast
8:35 AM 28.4 °F 19.7 °F 21.2 °F 74% 29.82 in 10.0 mi SW 9.2 mph - N/A   Mostly Cloudy
8:55 AM 28.4 °F 18.0 °F 21.2 °F 74% 29.83 in 10.0 mi SW 12.7 mph 18.4 mph N/A   Mostly Cloudy
9:15 AM 28.4 °F 17.5 °F 21.2 °F 74% 29.84 in 10.0 mi WSW 13.8 mph 23.0 mph N/A   Partly Cloudy
9:35 AM 30.2 °F 20.2 °F 21.2 °F 69% 29.84 in 10.0 mi WSW 12.7 mph 20.7 mph N/A   Clear
9:55 AM 30.2 °F 20.2 °F 21.2 °F 69% 29.85 in 10.0 mi SW 12.7 mph 20.7 mph N/A   Scattered Clouds
10:15 AM 30.2 °F 18.9 °F 21.2 °F 69% 29.85 in 10.0 mi WSW 16.1 mph 25.3 mph N/A   Partly Cloudy
10:35 AM 30.2 °F 19.3 °F 21.2 °F 69% 29.85 in 10.0 mi WSW 15.0 mph 21.9 mph N/A   Partly Cloudy
10:55 AM 30.2 °F 20.8 °F 21.2 °F 69% 29.86 in 10.0 mi WSW 11.5 mph 23.0 mph N/A   Mostly Cloudy
11:15 AM 30.2 °F 21.3 °F 21.2 °F 69% 29.86 in 10.0 mi WSW 10.4 mph 24.2 mph N/A   Mostly Cloudy
11:35 AM 30.2 °F 17.8 °F 21.2 °F 69% 29.85 in 10.0 mi SW 19.6 mph 25.3 mph N/A   Mostly Cloudy
11:55 AM 30.2 °F 17.8 °F 21.2 °F 69% 29.84 in 10.0 mi SW 19.6 mph 23.0 mph N/A   Partly Cloudy
12:15 PM 30.2 °F 17.8 °F 21.2 °F 69% 29.84 in 10.0 mi SW 19.6 mph 26.5 mph N/A   Scattered Clouds
12:35 PM 32.0 °F 20.8 °F 21.2 °F 64% 29.84 in 10.0 mi WSW 17.3 mph 25.3 mph N/A   Scattered Clouds
12:55 PM 32.0 °F 21.6 °F 19.4 °F 60% 29.84 in 10.0 mi SW 15.0 mph 23.0 mph N/A   Mostly Cloudy
1:15 PM 32.0 °F 21.2 °F 19.4 °F 60% 29.85 in 10.0 mi WSW 16.1 mph 25.3 mph N/A   Mostly Cloudy
1:35 PM 32.0 °F 21.2 °F 21.2 °F 64% 29.85 in 10.0 mi WSW 16.1 mph 24.2 mph N/A   Overcast
1:55 PM 32.0 °F 20.5 °F 21.2 °F 64% 29.85 in 10.0 mi WSW 18.4 mph 23.0 mph N/A   Mostly Cloudy
2:15 PM 32.0 °F 21.2 °F 21.2 °F 64% 29.86 in 10.0 mi SW 16.1 mph 23.0 mph N/A   Mostly Cloudy
2:35 PM 32.0 °F 19.8 °F 21.2 °F 64% 29.86 in 10.0 mi WSW 20.7 mph 26.5 mph N/A   Overcast
2:55 PM 32.0 °F 20.5 °F 21.2 °F 64% 29.87 in 10.0 mi WSW 18.4 mph 24.2 mph N/A   Mostly Cloudy
3:15 PM 30.2 °F 18.9 °F 19.4 °F 64% 29.87 in 10.0 mi SW 16.1 mph 23.0 mph N/A   Partly Cloudy
3:35 PM 30.2 °F 20.8 °F 19.4 °F 64% 29.89 in 10.0 mi WSW 11.5 mph 16.1 mph N/A   Scattered Clouds
3:55 PM 30.2 °F 19.3 °F 19.4 °F 64% 29.89 in 10.0 mi WSW 15.0 mph 20.7 mph N/A   Scattered Clouds
4:15 PM 28.4 °F 20.4 °F 19.4 °F 69% 29.90 in 10.0 mi WSW 8.1 mph - N/A   Mostly Cloudy
4:35 PM 28.4 °F 19.1 °F 19.4 °F 69% 29.91 in 10.0 mi WSW 10.4 mph 18.4 mph N/A   Overcast
4:55 PM 28.4 °F 18.0 °F 19.4 °F 69% 29.92 in 10.0 mi WSW 12.7 mph - N/A   Overcast
5:15 PM 28.4 °F 19.1 °F 19.4 °F 69% 29.92 in 10.0 mi WSW 10.4 mph - N/A   Overcast
5:35 PM 28.4 °F 19.7 °F 19.4 °F 69% 29.93 in 10.0 mi WSW 9.2 mph - N/A   Mostly Cloudy
5:55 PM 26.6 °F 16.8 °F 19.4 °F 74% 29.94 in 10.0 mi WSW 10.4 mph - N/A   Partly Cloudy
6:15 PM 26.6 °F 20.0 °F 19.4 °F 74% 29.95 in 10.0 mi West 5.8 mph - N/A   Clear
6:35 PM 26.6 °F 20.0 °F 17.6 °F 69% 29.95 in 10.0 mi West 5.8 mph - N/A   Clear
6:55 PM 24.8 °F 16.9 °F 17.6 °F 74% 29.96 in 10.0 mi WSW 6.9 mph - N/A   Clear
7:15 PM 24.8 °F 16.9 °F 17.6 °F 74% 29.96 in 10.0 mi WSW 6.9 mph - N/A   Mostly Cloudy
7:35 PM 26.6 °F 17.5 °F 17.6 °F 69% 29.97 in 10.0 mi SW 9.2 mph - N/A   Mostly Cloudy
7:55 PM 26.6 °F 20.0 °F 17.6 °F 69% 29.97 in 10.0 mi SW 5.8 mph - N/A   Mostly Cloudy
8:15 PM 26.6 °F 20.0 °F 17.6 °F 69% 29.98 in 10.0 mi SW 5.8 mph - N/A   Overcast
8:35 PM 26.6 °F 20.0 °F 17.6 °F 69% 29.98 in 10.0 mi SW 5.8 mph - N/A   Mostly Cloudy
8:55 PM 26.6 °F 17.5 °F 17.6 °F 69% 29.98 in 10.0 mi SW 9.2 mph - N/A   Partly Cloudy
9:15 PM 26.6 °F 19.1 °F 17.6 °F 69% 29.98 in 10.0 mi WSW 6.9 mph - N/A   Scattered Clouds
9:35 PM 26.6 °F 22.6 °F 17.6 °F 69% 29.99 in 10.0 mi North 3.5 mph - N/A   Partly Cloudy
9:55 PM 21.2 °F 13.6 °F 12.2 °F 68% 29.99 in 10.0 mi North 5.8 mph - N/A   Clear
10:15 PM 21.2 °F 13.6 °F 12.2 °F 68% 30.00 in 10.0 mi North 5.8 mph - N/A   Clear
10:35 PM 19.4 °F 14.3 °F 12.2 °F 74% 30.00 in 10.0 mi NNE 3.5 mph - N/A   Clear
10:55 PM 24.8 °F 19.1 °F 17.6 °F 74% 30.01 in 10.0 mi NW 4.6 mph - N/A   Scattered Clouds
11:15 PM 23.0 °F - 17.6 °F 80% 30.01 in 10.0 mi Calm Calm - N/A   Mostly Cloudy
11:35 PM 26.6 °F 18.2 °F 19.4 °F 74% 30.02 in 10.0 mi SW 8.1 mph - N/A   Mostly Cloudy
11:55 PM 24.8 °F 15.3 °F 17.6 °F 74% 30.02 in 10.0 mi SW 9.2 mph - N/A   Mostly Cloudy